FW8567 Weather Reports


time (UTC)temp
F
wind
direction
speed
knots
gust
knots
rain 1hr
in
rain 24hr
in
rain mn
in
humidity
%
barometer
mb
20260504231853 74 338 5.2 12.2 0.00 0.00 0.00 41 999.1
20260504225703 72 265 6.1 13.9 0.00 0.00 0.00 53 998.9
20260504224140 70 217 4.3 7.8 0.00 0.00 0.00 60 998.7
20260504222638 72 188 6.1 9.6 0.00 0.00 0.00 56 998.5
20260504221138 72 194 7.0 9.6 0.00 0.00 0.00 53 998.9
20260504215638 75 221 5.2 8.7 0.00 0.00 0.00 46 998.7
20260504214833 74 189 1.7 4.3 0.00 0.00 0.00 51 998.8
20260504211118 72 248 14.8 26.1 0.00 0.00 0.00 47 999.3
20260504205618 76 279 4.3 7.8 0.00 0.00 0.00 44 998.7
20260504204109 76 338 11.3 26.1 0.00 0.00 0.00 46 999.0
20260504202608 81 240 10.4 18.2 0.00 0.00 0.00 31 999.0
20260504201107 81 265 8.7 16.5 0.00 0.00 0.00 34 999.1
20260504195607 80 277 8.7 17.4 0.00 0.00 0.00 31 999.4
20260504194801 81 252 10.4 20.9 0.00 0.00 0.00 30 999.7
20260504192605 80 231 9.6 17.4 0.00 0.00 0.00 31 999.8
20260504191800 81 224 11.3 19.1 0.00 0.00 0.00 33 999.8
20260504185605 80 223 9.6 16.5 0.00 0.00 0.00 33 999.9
20260504184106 80 227 9.6 20.9 0.00 0.00 0.00 33 1000.0
20260504182601 80 245 9.6 19.1 0.00 0.00 0.00 33 1000.1
20260504181753 80 232 10.4 17.4 0.00 0.00 0.00 34 1000.2
20260504175551 79 250 11.3 20.0 0.00 0.00 0.00 36 1000.1
20260504174747 79 204 10.4 18.2 0.00 0.00 0.00 39 1000.0
20260504172543 78 224 9.6 14.8 0.00 0.00 0.00 38 1000.1
20260504171037 78 234 11.3 17.4 0.00 0.00 0.00 40 1000.2
20260504140951 65 201 6.1 12.2 0.00 0.00 0.00 57 1002.2
20260504080900 50 196 3.5 5.2 0.00 0.00 0.00 66 1005.0
20260504045324 57 205 2.6 4.3 0.00 0.00 0.00 46 1007.0
20260504043823 57 220 3.5 6.1 0.00 0.00 0.00 46 1007.1
20260504043017 58 202 2.6 5.2 0.00 0.00 0.00 46 1007.2
20260504041520 58 221 3.5 5.2 0.00 0.00 0.00 45 1007.3
20260504035322 58 210 2.6 5.2 0.00 0.00 0.00 46 1007.4
20260504034514 58 211 3.5 6.1 0.00 0.00 0.00 46 1007.5
20260504032322 59 193 2.6 4.3 0.00 0.00 0.00 45 1007.6
20260504030822 60 219 2.6 5.2 0.00 0.00 0.00 44 1007.5
20260504025322 61 219 3.5 6.1 0.00 0.00 0.00 42 1007.4
20260504023822 62 223 3.5 6.1 0.00 0.00 0.00 41 1007.2
20260504022318 62 206 3.5 6.1 0.00 0.00 0.00 40 1007.2
20260504020817 62 227 3.5 5.2 0.00 0.00 0.00 41 1007.1
20260504015315 63 213 2.6 4.3 0.00 0.00 0.00 38 1007.1
20260504014512 64 225 3.5 5.2 0.00 0.00 0.00 38 1007.0
20260504012314 65 212 2.6 5.2 0.00 0.00 0.00 37 1006.9
20260504011504 68 262 1.7 5.2 0.00 0.00 0.00 34 1006.8
20260504003746 70 258 3.5 7.8 0.00 0.00 0.00 33 1006.6
20260504002244 71 265 6.1 8.7 0.00 0.00 0.00 32 1006.7
20260504000744 71 261 7.0 13.0 0.00 0.00 0.00 31 1006.5
20260503235245 72 278 7.8 13.0 0.00 0.00 0.00 32 1006.4
20260503234434 73 267 8.7 15.6 0.00 0.00 0.00 31 1006.4